Regional Weather Roundup
Issued by NWS

Home | Current Version | Previous Version | Graphics & Text | Print | Product List | Glossary On
Versions: 1 2 3 4 5 6 7 8 9 10 11 12 13 14 15 16 17 18 19 20 21 22 23 24 25 26 27 28 29 30 31 32 33 34 35 36 37 38 39 40 41 42 43 44 45 46 47 48 49 50
000
ASUS43 KLMK 021202
RWRKY
KENTUCKY REGIONAL WEATHER ROUNDUP
NATIONAL WEATHER SERVICE LOUISVILLE KY
800 AM EDT TUE SEP 02 2014

NOTE "FAIR" INDICATES FEW OR NO CLOUDS BELOW 12,000 FEET
WITH NO SIGNIFICANT WEATHER AND/OR OBSTRUCTIONS TO VISIBILITY.

KYZ001>023-026-027-061>063-070>075-021300-
WESTERN AND SOUTH CENTRAL KENTUCKY

CITY           SKY/WX    TMP DP  RH WIND       PRES   REMARKS
PADUCAH        MOCLDY    77  72  84 SW9       29.96S
HENDERSON      CLOUDY    70  66  88 N3        29.96F THUNDER
OWENSBORO      NOT AVBL
HOPKINSVILLE   PTCLDY    74  74  99 S8        30.01S
BOWLING GREEN  CLOUDY    75  68  78 S10       30.01F
GLASGOW        PTCLDY    74  67  79 S3        30.03S
$$

KYZ024-025-028>034-038-045-046-053-021300-
NORTH CENTRAL KENTUCKY

CITY           SKY/WX    TMP DP  RH WIND       PRES   REMARKS
LOUISVILLE/SDF LGT RAIN  72  69  90 NW7       30.01R
LOUISVILLE/LOU LGT RAIN  71  68  90 NW5       30.01R
FORT KNOX      CLOUDY    75  70  83 NW8G17    30.01R
$$

KYZ035>037-039>044-047>052-055>060-089>105-021300-
NORTHEAST KENTUCKY

CITY           SKY/WX    TMP DP  RH WIND       PRES   REMARKS
LEXINGTON      CLOUDY    75  68  78 S10       30.01S
COVINGTON      TSTM      67  65  93 N9        30.01R FOG
FRANKFORT      CLOUDY    75  68  78 SW10      29.98S
$$

KYZ054-064>069-076>088-106>120-021300-
SOUTHEAST KENTUCKY

CITY           SKY/WX    TMP DP  RH WIND       PRES   REMARKS
JACKSON        PTSUNNY   73  68  84 CALM      30.08S
LONDON         PTCLDY    73  68  84 S3        30.09S
SOMERSET       CLOUDY    70  70 100 CALM      30.08S
MIDDLESBORO    PTCLDY    69  68  98 CALM      30.12R
MONTICELLO     MOSUNNY   73  70  91 CALM      30.08F
$$



USA.gov is the U.S. government's official web portal to all federal, state and local government web resources and services.